Location: Shenandoah County Park
(38.9356°N, 78.4524°W)
Time: 14:15:34
(UTC-05:00)

Vanguard 2 Rocket - Pass Details

Date: 11 December 2023
Orbit: 555 x 3309 km, 32.9° (Epoch: 03 March)

Event Time Altitude Azimuth Distance (km) Brightness Sun altitude
Rises 14:59:58 0° 261° (W) 5,871 11.8 16.0°
Reaches altitude 10° 15:03:18 10° 260° (W) 5,157 11.7 15.6°
Maximum altitude 15:19:56 73° 180° (S) 3,301 10.2 13.4°
Drops below altitude 10° 15:40:05 10° 101° (E) 6,072 10.8 10.5°
Sets 15:44:26 0° 100° (E) 6,910 11.0 9.9°
